Location: The Saddle
(36.8333°N, 80.3417°W)
Time: 10:09:36
(UTC-05:00)

S-56A Canister/Altair - Visible Passes

Search period start: 11 December 2023 00:00
Search period end: 21 December 2023 00:00
Orbit: 640 x 2489 km, 38.8° (Epoch: 10 December)

Date Brightness Start Highest point End Pass type
(mag) Time Alt. Az. Time Alt. Az. Time Alt. Az.
12 Dec 11.4 06:28:33 10° SSE 06:32:02 13° SE 06:35:06 10° ESE visible
13 Dec 11.5 05:56:00 10° SSE 05:58:41 11° SE 06:01:08 10° SE visible
14 Dec 11.6 05:24:28 10° SSE 05:25:18 10° SE 05:26:06 10° SE visible
15 Dec 10.3 06:48:04 10° SSW 06:56:29 33° SSE 07:02:28 10° E visible
16 Dec 10.5 06:14:25 10° SSW 06:23:07 30° SSE 06:29:23 10° E visible
17 Dec 10.6 05:40:47 10° SSW 05:49:41 28° SSE 05:56:13 10° E visible
18 Dec 10.8 05:07:12 10° SSW 05:16:13 26° SE 05:22:59 10° E visible
19 Dec 10.9 04:33:43 10° S 04:42:41 24° SE 04:49:37 10° E visible
19 Dec 9.4 06:36:56 10° SW 06:47:32 58° SSE 06:54:30 10° ENE visible
20 Dec 11.0 04:00:19 10° S 04:09:07 22° SE 04:16:08 10° E visible
20 Dec 9.6 06:02:54 10° SW 06:14:04 54° SSE 06:21:31 10° ENE visible
